Home   Weather   Bathurst   Past weeks

Flag for Canada Past Weather in Bathurst, New Brunswick, Canada — Yesterday and Last 2 Weeks

Now
43 °F

Passing clouds.


Feels Like: 41 °F
Forecast: 44 / 53 °F
Wind: 3 mph from East

Location: Bathurst Airport

Current Time: Sep 27, 2016 at 10:54:39 PM

Latest Report: Sep 27, 2016 at 10:00 PM


Visibility: 15 mi

Pressure: 30.20 "Hg

Humidity: 81%

Dew Point: 37 °F

Location of BathurstLocation

Past Weather in Bathurst — Graph

°F

Bathurst Temperature Yesterday

Maximum temperature yesterday: 61 °F (at 4:00 PM)
Minimum temperature yesterday: 39 °F (at 7:00 AM)
Average temperature yesterday: 49 °F

High & Low Weather Summary for the Past Weeks

 TemperatureHumidityPressure
High79 °F (Sep 13, 3:00 PM)100% (Sep 16, 7:00 AM)30.27 "Hg (Sep 16, 7:00 AM)
Low37 °F (Sep 16, 7:00 AM)39% (Sep 15, 4:00 PM)29.75 "Hg (Sep 14, 2:00 PM)
Average54 °F78%30.01 "Hg
* Reported Sep 12 9:00 PM — Sep 27 9:00 PM, Bathurst, Weather by CustomWeather, © 2016

Note: Actual official high and low records may vary slightly from our data, if they occured in-between our weather recording intervals... More about our weather records

Advertising

Bathurst Weather History for the Previous 24 Hours

Scroll right to see more
 ConditionsComfort  
Time TempWeatherWind HumidityBarometerVisibility
9:00 PM
Tue, Sep 27
41 °FPassing clouds.3 mph87%30.18 "Hg15 mi
8:00 PM45 °FPassing clouds.2 mph76%30.16 "Hg15 mi
7:00 PM46 °FPartly sunny.3 mph66%30.13 "Hg15 mi
6:00 PM48 °FPartly sunny.7 mph62%30.10 "Hg15 mi
5:00 PM48 °FSprinkles. Overcast.9 mph62%30.06 "Hg15 mi
4:00 PM48 °FPartly sunny.9 mph66%30.05 "Hg15 mi
3:00 PM50 °FPartly sunny.8 mph67%30.02 "Hg15 mi
2:00 PM50 °FMore clouds than sun.9 mph67%30.01 "Hg15 mi
1:00 PM50 °FCloudy.13 mph71%30.00 "Hg15 mi
12:00 PM50 °FPartly sunny.9 mph76%29.98 "Hg15 mi
11:00 AM48 °FPartly sunny.3 mph76%29.96 "Hg15 mi
10:00 AM48 °FPartly sunny.3 mph76%29.94 "Hg14 mi
9:00 AM43 °FPartly sunny.No wind93%29.91 "Hg14 mi
8:00 AM39 °FPartly sunny.2 mph100%29.88 "Hg12 mi
7:00 AM41 °FPartly cloudy.2 mph87%29.87 "Hg15 mi
6:00 AM45 °FPassing clouds.10 mph81%29.85 "Hg15 mi
5:00 AM39 °FClear.6 mph93%29.85 "Hg15 mi
4:00 AM41 °FClear.6 mph87%29.85 "Hg15 mi
3:00 AM41 °FClear.2 mph87%29.86 "Hg15 mi
2:00 AM43 °FClear.8 mph87%29.87 "Hg15 mi
1:00 AM43 °FClear.8 mph87%29.88 "Hg15 mi
12:00 AM41 °FClear.5 mph93%29.89 "Hg15 mi
11:00 PM
Mon, Sep 26
43 °FClear.3 mph87%29.91 "Hg15 mi
10:00 PM43 °FClear.5 mph93%29.92 "Hg15 mi
Weather by CustomWeather, © 2016

See weather overviewHow to use our weather pages